Peterhead, United Kingdom
Current Conditions -  °F | °C
As of 6:20 AM on Friday 19 Dec 2014 (Local Time) from EGPD Reporting Station
Clear Clear  
Wind Chill: 30°   Ceiling: Unl
Heat Index: 37°   Visibility: 6mi
Dew Point: 30°   Wind: 10mph
Humidity: 75%   Direction: 250°WSW
Pressure: 29.35"   Gusts: NA
Location:  57.51°N, 1.78°W
Report Text: EGPD 190620Z 25009KT CAVOK 03/M01 Q0994 NOSIG
Loading
Personal Weather Stations






























Interactive Weather Map New forecast layout! Learn more

10-Day Weather Forecast

Advertisements
Track Severe Weather on mobile